Zurück zum Katalog

FENGYUN 1C DEB

AktivSSO
NORAD 32186·DEBRIS·🇨🇳 China

Gestartet May 10, 1999 von Taiyuan Satellite Launch Center

Loading…

Nächste Überflüge (nächste 24 Stunden)

TLE

AktuellSource: Space-Track

Epoche: Sep 12, 2026, 22:46 UTC

1 32186U 99025CUG 26255.94869505  .00000858  00000-0  69541-3 0  9990
2 32186  99.5865 314.1202 0272836 204.4470 331.6309 13.77062701663831

Verfolge FENGYUN 1C DEB in Echtzeit mit AllMySat

Download on the App Store